Regional Weather Roundup
Issued by NWS

Home | Current Version | Previous Version | Text Only | Print | Product List | Glossary On
Versions: 1 2 3 4 5 6 7 8 9 10 11 12 13 14 15 16 17 18 19 20 21 22 23 24 25 26 27 28 29 30 31 32 33 34 35 36 37 38 39 40 41 42 43 44 45 46 47 48 49 50
000
ASUS44 KJAN 292103
RWRMS

MISSISSIPPI HOURLY WEATHER ROUNDUP
NATIONAL WEATHER SERVICE JACKSON MS
400 PM CDT TUE JUL 29 2014

NOTE: "FAIR: INDICATES FEW OR NO CLOUDS BELOW 12,000 FEET WITH NO
SIGNIFICANT WEATHER AND/OR OBSTRUCTIONS TO VISIBILITY.

MSZ001>002-007>008-010>013-018>021-025>028-034>036-292200-
NORTHWEST MISSISSIPPI

CITY           SKY/WX    TMP DP  RH WIND       PRES   REMARKS
CLARKSDALE     FAIR      82  59  44 N16       30.11S
CLEVELAND      FAIR      81  62  51 N10       30.08F
GREENWOOD      SUNNY     83  60  45 N7G17     30.08F
GREENVILLE     SUNNY     84  60  44 NE12      30.08F
GRENADA        FAIR      81  57  44 N9        30.09S
OLIVE BRANCH   MOSUNNY   79  57  47 NE12      30.12S
OXFORD         FAIR      77  54  44 N8        30.12S
TUNICA         CLEAR     79  55  44 NE16      30.12S
$$

MSZ003>006-009-014>017-022>024-029>033-037>039-292200-
NORTHEAST MISSISSIPPI

CITY           SKY/WX    TMP DP  RH WIND       PRES   REMARKS
BELMONT        FAIR      75  55  49 N8        30.09F
COLUMBUS AFB   SUNNY     81  55  41 N14G20    30.07S
CORINTH        MOCLDY    77  54  44 NE10      30.11S
GOLDN TRIANGLE MOSUNNY   82  57  42 N12       30.07F
STARKVILLE     FAIR      81  55  41 N7        30.07S
TUPELO         MOSUNNY   79  53  40 NE12      30.09S
$$

MSZ040-058-292200-
CENTRAL MISSISSIPPI

CITY           SKY/WX    TMP DP  RH WIND       PRES   REMARKS
JACKSON INTL   PTSUNNY   86  65  49 N10       30.05S
JACKSON HAWKNS SUNNY     86  63  45 NW10      30.05F
MERIDIAN KEY   PTSUNNY   85  62  46 N10       30.02F
MERIDIAN NAS   PTSUNNY   85  63  47 N9        30.03F
RAYMOND        FAIR      84  79  84 N6        30.05F HX  96
VICKSBURG      MOSUNNY   89  66  46 N9        30.05F HX  91
$$

MSZ059>079-292200-
SOUTH MISSISSIPPI

CITY           SKY/WX    TMP DP  RH WIND       PRES   REMARKS
BROOKHAVEN     FAIR      88  64  45 NW7       30.06F
COLUMBIA       FAIR      90  64  43 N8        30.02S HX  91
HATTIESBURG    MOSUNNY   88  62  41 N8        30.02F
MCCOMB         MOSUNNY   86  62  44 NW7       30.04F
NATCHEZ        MOSUNNY   84  66  54 NE8       30.06F
PINE BELT      MOSUNNY   88  63  42 NW10      30.04F
$$

MSZ080>082-292200-
COASTAL MISSISSIPPI

CITY           SKY/WX    TMP DP  RH WIND       PRES   REMARKS
BAY ST LOUIS   MOSUNNY  N/A N/A N/A N6        30.01F
BILOXI         MOSUNNY   88  68  51 VRB3      30.00F HX  91
PASCAGOULA     PTSUNNY   89  65  44 VRB6      29.99F HX  91
GULFPORT       MOSUNNY   90  62  39 N10       29.99F HX  90
$$


USA.gov is the U.S. government's official web portal to all federal, state and local government web resources and services.